Time,TemperatureF,DewpointF,PressureIn,WindDirection,WindDirectionDegrees,WindSpeedMPH,WindSpeedGustMPH,Humidity,HourlyPrecipIn,Conditions,Clouds,dailyrainin,SoftwareType,DateUTC
2013-01-26 00:02:00,35.0,28.0,-100.00,WNW,285,13.0,16.0,77,-99.99,,,-99.99,,2013-01-26 07:02:00,
2013-01-26 00:12:00,35.0,29.0,-100.00,WNW,285,14.0,17.0,77,-99.99,,,-99.99,,2013-01-26 07:12:00,
2013-01-26 00:21:00,35.0,29.0,-100.00,West,280,10.0,16.0,78,-99.99,,,-99.99,,2013-01-26 07:21:00,
2013-01-26 00:33:00,34.0,29.0,-100.00,West,275,9.0,16.0,79,-99.99,,,-99.99,,2013-01-26 07:33:00,
2013-01-26 00:41:00,34.0,28.0,-100.00,West,265,10.0,12.0,80,-99.99,,,-99.99,,2013-01-26 07:41:00,
2013-01-26 00:51:00,35.0,29.0,-100.00,WSW,250,10.0,17.0,79,-99.99,,,-99.99,,2013-01-26 07:51:00,
2013-01-26 01:02:00,36.0,30.0,-100.00,WSW,250,11.0,19.0,77,-99.99,,,-99.99,,2013-01-26 08:02:00,
2013-01-26 01:11:00,35.0,29.0,-100.00,West,265,11.0,14.0,77,-99.99,,,-99.99,,2013-01-26 08:11:00,
2013-01-26 01:21:00,34.0,28.0,-100.00,West,275,11.0,12.0,80,-99.99,,,-99.99,,2013-01-26 08:21:00,
2013-01-26 01:32:00,35.0,29.0,-100.00,WSW,255,11.0,16.0,78,-99.99,,,-99.99,,2013-01-26 08:32:00,
2013-01-26 01:42:00,36.0,29.0,-100.00,WSW,255,9.0,17.0,76,-99.99,,,-99.99,,2013-01-26 08:42:00,
2013-01-26 01:53:00,35.0,28.0,-100.00,WSW,250,10.0,14.0,77,-99.99,,,-99.99,,2013-01-26 08:53:00,
2013-01-26 02:02:00,35.0,28.0,-100.00,West,265,9.0,17.0,77,-99.99,,,-99.99,,2013-01-26 09:02:00,
2013-01-26 02:11:00,35.0,29.0,-100.00,West,265,11.0,17.0,77,-99.99,,,-99.99,,2013-01-26 09:11:00,
2013-01-26 02:22:00,36.0,29.0,-100.00,West,265,13.0,24.0,74,-99.99,,,-99.99,,2013-01-26 09:22:00,
2013-01-26 02:32:00,35.0,28.0,-100.00,West,260,14.0,21.0,75,-99.99,,,-99.99,,2013-01-26 09:32:00,
2013-01-26 02:42:00,36.0,29.0,-100.00,West,260,12.0,19.0,75,-99.99,,,-99.99,,2013-01-26 09:42:00,
2013-01-26 02:51:00,35.0,28.0,-100.00,West,270,12.0,16.0,75,-99.99,,,-99.99,,2013-01-26 09:51:00,
2013-01-26 03:01:00,35.0,28.0,-100.00,WNW,290,8.0,15.0,75,-99.99,,,-99.99,,2013-01-26 10:01:00,
2013-01-26 03:11:00,35.0,28.0,-100.00,NW,310,9.0,12.0,76,-99.99,,,-99.99,,2013-01-26 10:11:00,
2013-01-26 03:21:00,35.0,28.0,-100.00,WNW,300,7.0,12.0,76,-99.99,,,-99.99,,2013-01-26 10:21:00,
2013-01-26 03:31:00,34.0,28.0,-100.00,NW,305,7.0,10.0,77,-99.99,,,-99.99,,2013-01-26 10:31:00,
2013-01-26 03:42:00,35.0,28.0,-100.00,NW,305,7.0,12.0,77,-99.99,,,-99.99,,2013-01-26 10:42:00,
2013-01-26 03:52:00,35.0,28.0,-100.00,WNW,290,8.0,11.0,77,-99.99,,,-99.99,,2013-01-26 10:52:00,
2013-01-26 04:01:00,34.0,28.0,-100.00,West,270,7.0,14.0,78,-99.99,,,-99.99,,2013-01-26 11:01:00,
2013-01-26 04:12:00,35.0,29.0,-100.00,WSW,250,7.0,14.0,78,-99.99,,,-99.99,,2013-01-26 11:12:00,
2013-01-26 04:22:00,35.0,29.0,-100.00,SW,230,4.0,11.0,77,-99.99,,,-99.99,,2013-01-26 11:22:00,
2013-01-26 04:32:00,36.0,29.0,-100.00,SSE,150,4.0,12.0,76,-99.99,,,-99.99,,2013-01-26 11:32:00,
2013-01-26 04:52:00,35.0,29.0,-100.00,West,260,9.0,14.0,77,-99.99,,,-99.99,,2013-01-26 11:52:00,
2013-01-26 05:02:00,34.0,28.0,-100.00,WSW,245,7.0,10.0,79,-99.99,,,-99.99,,2013-01-26 12:02:00,
2013-01-26 05:12:00,33.0,28.0,-100.00,West,265,8.0,12.0,79,-99.99,,,-99.99,,2013-01-26 12:12:00,
2013-01-26 05:22:00,34.0,29.0,-100.00,SW,235,11.0,20.0,80,-99.99,,,-99.99,,2013-01-26 12:22:00,
2013-01-26 05:33:00,33.0,28.0,-100.00,WSW,250,12.0,16.0,81,-99.99,,,-99.99,,2013-01-26 12:33:00,
2013-01-26 05:42:00,33.0,28.0,-100.00,WSW,255,12.0,16.0,82,-99.99,,,-99.99,,2013-01-26 12:42:00,
2013-01-26 05:52:00,33.0,28.0,-100.00,WNW,285,11.0,18.0,83,-99.99,,,-99.99,,2013-01-26 12:52:00,
2013-01-26 06:03:00,33.0,28.0,-100.00,WNW,290,11.0,13.0,83,-99.99,,,-99.99,,2013-01-26 13:03:00,
2013-01-26 06:12:00,32.0,28.0,-100.00,West,275,10.0,13.0,85,-99.99,,,-99.99,,2013-01-26 13:12:00,
2013-01-26 06:22:00,31.0,28.0,-100.00,WNW,295,9.0,12.0,87,-99.99,,,-99.99,,2013-01-26 13:22:00,
2013-01-26 06:32:00,31.0,28.0,-100.00,WNW,295,9.0,11.0,88,-99.99,,,-99.99,,2013-01-26 13:32:00,
2013-01-26 06:42:00,32.0,29.0,-100.00,WNW,285,12.0,17.0,87,-99.99,,,-99.99,,2013-01-26 13:42:00,
2013-01-26 06:52:00,31.0,29.0,-100.00,WNW,290,11.0,13.0,89,-99.99,,,-99.99,,2013-01-26 13:52:00,
2013-01-26 07:03:00,31.0,29.0,-100.00,WNW,300,14.0,17.0,91,-99.99,,,-99.99,,2013-01-26 14:03:00,
2013-01-26 07:11:00,31.0,29.0,-100.00,WNW,290,14.0,18.0,91,-99.99,,,-99.99,,2013-01-26 14:11:00,
2013-01-26 07:21:00,31.0,29.0,-100.00,WNW,285,17.0,19.0,91,-99.99,,,-99.99,,2013-01-26 14:21:00,
2013-01-26 07:32:00,32.0,29.0,-100.00,West,275,17.0,21.0,88,-99.99,,,-99.99,,2013-01-26 14:32:00,
2013-01-26 07:43:00,32.0,29.0,-100.00,West,265,17.0,23.0,87,-99.99,,,-99.99,,2013-01-26 14:43:00,
2013-01-26 07:52:00,32.0,29.0,-100.00,West,275,15.0,21.0,85,-99.99,,,-99.99,,2013-01-26 14:52:00,
2013-01-26 08:03:00,32.0,29.0,-100.00,WNW,290,12.0,17.0,87,-99.99,,,-99.99,,2013-01-26 15:03:00,
2013-01-26 08:12:00,32.0,28.0,-100.00,WNW,300,9.0,17.0,87,-99.99,,,-99.99,,2013-01-26 15:12:00,
2013-01-26 08:22:00,31.0,28.0,-100.00,NW,315,11.0,14.0,90,-99.99,,,-99.99,,2013-01-26 15:22:00,
2013-01-26 08:32:00,32.0,29.0,-100.00,WNW,295,11.0,14.0,90,-99.99,,,-99.99,,2013-01-26 15:32:00,
2013-01-26 08:43:00,33.0,30.0,-100.00,WNW,285,13.0,17.0,88,-99.99,,,-99.99,,2013-01-26 15:43:00,
2013-01-26 08:52:00,34.0,30.0,-100.00,West,270,14.0,19.0,87,-99.99,,,-99.99,,2013-01-26 15:52:00,
2013-01-26 09:02:00,34.0,30.0,-100.00,West,270,14.0,17.0,86,-99.99,,,-99.99,,2013-01-26 16:02:00,
2013-01-26 09:12:00,35.0,30.0,-100.00,West,270,16.0,19.0,82,-99.99,,,-99.99,,2013-01-26 16:12:00,
2013-01-26 09:22:00,36.0,30.0,-100.00,West,270,15.0,21.0,78,-99.99,,,-99.99,,2013-01-26 16:22:00,
2013-01-26 09:32:00,36.0,30.0,-100.00,West,280,12.0,16.0,78,-99.99,,,-99.99,,2013-01-26 16:32:00,
2013-01-26 09:42:00,36.0,31.0,-100.00,WNW,290,11.0,14.0,79,-99.99,,,-99.99,,2013-01-26 16:42:00,
2013-01-26 09:53:00,38.0,31.0,-100.00,West,265,15.0,20.0,75,-99.99,,,-99.99,,2013-01-26 16:53:00,
2013-01-26 10:03:00,38.0,30.0,-100.00,WSW,240,20.0,23.0,71,-99.99,,,-99.99,,2013-01-26 17:03:00,
2013-01-26 10:12:00,39.0,30.0,-100.00,WSW,240,20.0,24.0,70,-99.99,,,-99.99,,2013-01-26 17:12:00,
2013-01-26 10:22:00,39.0,29.0,-100.00,WSW,240,21.0,26.0,68,-99.99,,,-99.99,,2013-01-26 17:22:00,
2013-01-26 10:32:00,39.0,29.0,-100.00,WSW,240,17.0,24.0,68,-99.99,,,-99.99,,2013-01-26 17:32:00,
2013-01-26 10:42:00,39.0,29.0,-100.00,WSW,240,16.0,21.0,67,-99.99,,,-99.99,,2013-01-26 17:42:00,
2013-01-26 10:52:00,39.0,29.0,-100.00,WSW,245,13.0,17.0,66,-99.99,,,-99.99,,2013-01-26 17:52:00,
2013-01-26 11:02:00,40.0,29.0,-100.00,SW,230,11.0,19.0,66,-99.99,,,-99.99,,2013-01-26 18:02:00,
2013-01-26 11:12:00,40.0,29.0,-100.00,WSW,240,13.0,17.0,65,-99.99,,,-99.99,,2013-01-26 18:12:00,
2013-01-26 11:22:00,40.0,29.0,-100.00,West,260,12.0,16.0,64,-99.99,,,-99.99,,2013-01-26 18:22:00,
2013-01-26 11:33:00,40.0,29.0,-100.00,WSW,250,8.0,14.0,63,-99.99,,,-99.99,,2013-01-26 18:33:00,
2013-01-26 11:42:00,40.0,29.0,-100.00,WSW,240,10.0,14.0,62,-99.99,,,-99.99,,2013-01-26 18:42:00,
2013-01-26 11:52:00,41.0,29.0,-100.00,WSW,255,8.0,14.0,61,-99.99,,,-99.99,,2013-01-26 18:52:00,
2013-01-26 12:03:00,42.0,29.0,-100.00,SW,215,6.0,11.0,59,-99.99,,,-99.99,,2013-01-26 19:03:00,
2013-01-26 12:12:00,43.0,29.0,-100.00,South,180,9.0,13.0,58,-99.99,,,-99.99,,2013-01-26 19:12:00,
2013-01-26 12:22:00,42.0,29.0,-100.00,SSE,165,6.0,12.0,58,-99.99,,,-99.99,,2013-01-26 19:22:00,
2013-01-26 12:32:00,43.0,29.0,-100.00,South,180,6.0,9.0,56,-99.99,,,-99.99,,2013-01-26 19:32:00,
2013-01-26 12:42:00,43.0,29.0,-100.00,SSE,160,4.0,7.0,56,-99.99,,,-99.99,,2013-01-26 19:42:00,
2013-01-26 12:52:00,43.0,28.0,-100.00,West,270,4.0,7.0,55,-99.99,,,-99.99,,2013-01-26 19:52:00,
2013-01-26 13:02:00,43.0,28.0,-100.00,West,270,4.0,9.0,54,-99.99,,,-99.99,,2013-01-26 20:02:00,
2013-01-26 13:11:00,43.0,28.0,-100.00,SW,215,4.0,7.0,54,-99.99,,,-99.99,,2013-01-26 20:11:00,
2013-01-26 13:21:00,44.0,28.0,-100.00,ESE,120,3.0,7.0,53,-99.99,,,-99.99,,2013-01-26 20:21:00,
2013-01-26 13:32:00,43.0,27.0,-100.00,SE,125,6.0,9.0,53,-99.99,,,-99.99,,2013-01-26 20:32:00,
2013-01-26 13:42:00,42.0,27.0,-100.00,ESE,115,10.0,12.0,56,-99.99,,,-99.99,,2013-01-26 20:42:00,
2013-01-26 13:52:00,41.0,27.0,-100.00,ESE,115,7.0,12.0,57,-99.99,,,-99.99,,2013-01-26 20:52:00,
2013-01-26 14:02:00,42.0,27.0,-100.00,East,100,6.0,9.0,56,-99.99,,,-99.99,,2013-01-26 21:02:00,
2013-01-26 14:12:00,42.0,27.0,-100.00,ESE,105,6.0,9.0,56,-99.99,,,-99.99,,2013-01-26 21:12:00,
2013-01-26 14:22:00,41.0,27.0,-100.00,ESE,120,4.0,7.0,56,-99.99,,,-99.99,,2013-01-26 21:22:00,
2013-01-26 14:32:00,41.0,27.0,-100.00,SE,130,6.0,8.0,57,-99.99,,,-99.99,,2013-01-26 21:32:00,
2013-01-26 14:42:00,41.0,27.0,-100.00,SE,130,4.0,9.0,57,-99.99,,,-99.99,,2013-01-26 21:42:00,
2013-01-26 14:51:00,41.0,27.0,-100.00,SE,140,2.0,4.0,57,-99.99,,,-99.99,,2013-01-26 21:51:00,
2013-01-26 15:01:00,42.0,27.0,-100.00,South,170,2.0,4.0,57,-99.99,,,-99.99,,2013-01-26 22:01:00,
2013-01-26 15:11:00,41.0,27.0,-100.00,ESE,120,2.0,5.0,57,-99.99,,,-99.99,,2013-01-26 22:11:00,
2013-01-26 15:21:00,41.0,27.0,-100.00,ESE,110,1.0,4.0,57,-99.99,,,-99.99,,2013-01-26 22:21:00,
2013-01-26 15:32:00,42.0,27.0,-100.00,NE,55,0.0,1.0,56,-99.99,,,-99.99,,2013-01-26 22:32:00,
2013-01-26 15:42:00,42.0,27.0,-100.00,NE,40,0.0,2.0,56,-99.99,,,-99.99,,2013-01-26 22:42:00,
2013-01-26 15:51:00,42.0,28.0,-100.00,ESE,115,0.0,1.0,56,-99.99,,,-99.99,,2013-01-26 22:51:00,
2013-01-26 16:01:00,41.0,27.0,-100.00,SE,130,4.0,5.0,56,-99.99,,,-99.99,,2013-01-26 23:01:00,
2013-01-26 16:11:00,41.0,27.0,-100.00,SE,140,4.0,6.0,56,-99.99,,,-99.99,,2013-01-26 23:11:00,
2013-01-26 16:22:00,40.0,27.0,-100.00,SE,140,4.0,6.0,57,-99.99,,,-99.99,,2013-01-26 23:22:00,
2013-01-26 16:32:00,40.0,27.0,-100.00,SSE,150,3.0,4.0,57,-99.99,,,-99.99,,2013-01-26 23:32:00,
2013-01-26 16:41:00,40.0,26.0,-100.00,ESE,120,2.0,4.0,58,-99.99,,,-99.99,,2013-01-26 23:41:00,
2013-01-26 16:52:00,40.0,26.0,-100.00,SE,145,1.0,3.0,58,-99.99,,,-99.99,,2013-01-26 23:52:00,
2013-01-26 17:02:00,39.0,26.0,-100.00,South,175,2.0,3.0,59,-99.99,,,-99.99,,2013-01-27 00:02:00,
2013-01-26 17:11:00,39.0,26.0,-100.00,SSE,150,2.0,3.0,60,-99.99,,,-99.99,,2013-01-27 00:11:00,
2013-01-26 17:21:00,38.0,26.0,-100.00,SSE,160,2.0,2.0,61,-99.99,,,-99.99,,2013-01-27 00:21:00,
2013-01-26 17:32:00,37.0,26.0,-100.00,SE,125,5.0,6.0,62,-99.99,,,-99.99,,2013-01-27 00:32:00,
2013-01-26 17:41:00,37.0,26.0,-100.00,SE,145,4.0,6.0,63,-99.99,,,-99.99,,2013-01-27 00:41:00,
2013-01-26 17:51:00,36.0,26.0,-100.00,SE,140,6.0,7.0,64,-99.99,,,-99.99,,2013-01-27 00:51:00,
2013-01-26 18:01:00,36.0,26.0,-100.00,SE,145,6.0,7.0,65,-99.99,,,-99.99,,2013-01-27 01:01:00,
2013-01-26 18:11:00,36.0,26.0,-100.00,SE,145,6.0,8.0,65,-99.99,,,-99.99,,2013-01-27 01:11:00,
2013-01-26 18:22:00,36.0,26.0,-100.00,SSE,150,6.0,9.0,65,-99.99,,,-99.99,,2013-01-27 01:22:00,
2013-01-26 18:32:00,36.0,26.0,-100.00,SE,140,6.0,8.0,66,-99.99,,,-99.99,,2013-01-27 01:32:00,
2013-01-26 18:41:00,35.0,26.0,-100.00,SE,135,7.0,8.0,67,-99.99,,,-99.99,,2013-01-27 01:41:00,
2013-01-26 18:51:00,35.0,26.0,-100.00,SE,135,7.0,9.0,67,-99.99,,,-99.99,,2013-01-27 01:51:00,
2013-01-26 19:01:00,35.0,26.0,-100.00,SE,135,6.0,9.0,68,-99.99,,,-99.99,,2013-01-27 02:01:00,
2013-01-26 19:11:00,35.0,26.0,-100.00,SSE,150,6.0,9.0,68,-99.99,,,-99.99,,2013-01-27 02:11:00,
2013-01-26 19:21:00,35.0,26.0,-100.00,SE,135,9.0,11.0,69,-99.99,,,-99.99,,2013-01-27 02:21:00,
2013-01-26 19:31:00,35.0,26.0,-100.00,SE,145,7.0,11.0,69,-99.99,,,-99.99,,2013-01-27 02:31:00,
2013-01-26 19:52:00,34.0,26.0,-100.00,SE,140,4.0,6.0,70,-99.99,,,-99.99,,2013-01-27 02:52:00,
2013-01-26 20:02:00,34.0,26.0,-100.00,SE,135,5.0,6.0,71,-99.99,,,-99.99,,2013-01-27 03:02:00,
2013-01-26 20:11:00,34.0,26.0,-100.00,East,100,4.0,6.0,71,-99.99,,,-99.99,,2013-01-27 03:11:00,
2013-01-26 20:21:00,34.0,26.0,-100.00,East,95,4.0,4.0,72,-99.99,,,-99.99,,2013-01-27 03:21:00,
2013-01-26 20:32:00,33.0,26.0,-100.00,East,95,5.0,6.0,72,-99.99,,,-99.99,,2013-01-27 03:32:00,
2013-01-26 20:42:00,33.0,26.0,-100.00,East,95,5.0,6.0,73,-99.99,,,-99.99,,2013-01-27 03:42:00,
2013-01-26 20:51:00,32.0,25.0,-100.00,ESE,105,4.0,5.0,74,-99.99,,,-99.99,,2013-01-27 03:51:00,
2013-01-26 21:01:00,32.0,25.0,-100.00,ESE,115,6.0,6.0,75,-99.99,,,-99.99,,2013-01-27 04:01:00,
2013-01-26 21:11:00,32.0,25.0,-100.00,SE,130,4.0,6.0,76,-99.99,,,-99.99,,2013-01-27 04:11:00,
2013-01-26 21:21:00,31.0,25.0,-100.00,ESE,115,6.0,7.0,77,-99.99,,,-99.99,,2013-01-27 04:21:00,
2013-01-26 21:32:00,31.0,25.0,-100.00,ESE,115,6.0,7.0,78,-99.99,,,-99.99,,2013-01-27 04:32:00,
2013-01-26 21:41:00,31.0,25.0,-100.00,ESE,120,6.0,6.0,78,-99.99,,,-99.99,,2013-01-27 04:41:00,
2013-01-26 21:51:00,31.0,25.0,-100.00,SE,125,6.0,6.0,79,-99.99,,,-99.99,,2013-01-27 04:51:00,
2013-01-26 22:03:00,31.0,25.0,-100.00,SE,130,6.0,7.0,79,-99.99,,,-99.99,,2013-01-27 05:03:00,
2013-01-26 22:12:00,31.0,25.0,-100.00,SE,130,7.0,7.0,80,-99.99,,,-99.99,,2013-01-27 05:12:00,
2013-01-26 22:22:00,31.0,26.0,-100.00,SE,125,6.0,7.0,80,-99.99,,,-99.99,,2013-01-27 05:22:00,
2013-01-26 22:32:00,30.0,26.0,-100.00,SE,145,4.0,6.0,81,-99.99,,,-99.99,,2013-01-27 05:32:00,
2013-01-26 22:41:00,31.0,26.0,-100.00,SSE,160,5.0,7.0,82,-99.99,,,-99.99,,2013-01-27 05:41:00,
2013-01-26 22:52:00,31.0,27.0,-100.00,SSE,150,5.0,8.0,82,-99.99,,,-99.99,,2013-01-27 05:52:00,
2013-01-26 23:01:00,32.0,27.0,-100.00,SSE,160,4.0,6.0,82,-99.99,,,-99.99,,2013-01-27 06:01:00,
2013-01-26 23:11:00,32.0,27.0,-100.00,SSE,160,3.0,6.0,82,-99.99,,,-99.99,,2013-01-27 06:11:00,
2013-01-26 23:21:00,32.0,27.0,-100.00,SE,135,5.0,6.0,83,-99.99,,,-99.99,,2013-01-27 06:21:00,
2013-01-26 23:32:00,31.0,27.0,-100.00,East,100,3.0,6.0,83,-99.99,,,-99.99,,2013-01-27 06:32:00,
2013-01-26 23:41:00,31.0,27.0,-100.00,SE,125,4.0,5.0,83,-99.99,,,-99.99,,2013-01-27 06:41:00,
2013-01-26 23:51:00,31.0,27.0,-100.00,SE,125,6.0,6.0,83,-99.99,,,-99.99,,2013-01-27 06:51:00,